Location: D�nning
(49.2479°N, 12.8491°E)
Time: 15:46:29
(UTC+00:00)

Terra - Pass Details

Date: 18 September 2020
Orbit: 701 x 703 km, 98.2° (Epoch: 24 October)

Event Time Altitude Azimuth Distance (km) Brightness Sun altitude
Exits shadow 20:19:12 30° 26° (NNE) 1,266 3.2 -28.3°
Drops below altitude 10° 20:22:02 10° 360° (N) 2,183 4.8 -28.7°
Sets 20:24:25 0° 352° (N) 3,106 5.9 -29.0°
